COSMOS 2084

Last updated on Sun Jun 21 2026 00:02:15 GMT+0000 (Coordinated Universal Time)

1 20663U 90055A 26171.44756243 .00001547 00000+0 11896-3 0 9992 2 20663 62.7899 344.9624 0005714 284.4291 75.6175 15.06127213951799
UTC large
Height (km)
Speed (km/s)
/
Latitude / Longitude
Inclination (degrees)
Orbital Period (minutes)
Azimuth
Elevation
Range (km)
Doppler Factor

Next 0 passes for location: London (51.5072 / 0.1276)

No passes found over London.
COSMOS 2084